Flag for India Weather past 2 weeks in Jaipur, Rajasthan, India

Now
82 °F

Passing clouds.


Feels Like: 86 °F
Forecast: 86 / 99 °F
Wind: 5 mph from West

Location: Jaipur / Sanganer

Current Time: Aug 23, 2014 at 6:17:25 AM

Latest Report: Aug 23, 2014 at 5:00 AM


Visibility: 2 mi

Pressure: 29.74 "Hg

Humidity: 66%

Dew point: 70 °F

Location of JaipurLocation

Historic Weather in Jaipur — Graph

°F

Jaipur temperature yesterday

Maximum temperature yesterday: 97 °F (at 3:00 PM)
Minimum temperature yesterday: 81 °F (at 3:00 AM)
Average temperature yesterday: 88 °F

Past Weeks' High & Low Weather Summary

 TemperatureHumidityPressure
High97 °F (Aug 20, 4:00 PM)100% (Aug 8, 8:00 AM)30.01 "Hg (Aug 8, 8:00 AM)
Low75 °F (Aug 8, 8:00 AM)34% (Aug 21, 4:00 PM)29.53 "Hg (Aug 8, 5:00 AM)
Average84 °F74%29.68 "Hg
* Reported Aug 8 5:00 AM — Aug 23 5:00 AM, Jaipur, Weather by CustomWeather, © 2014

Note: Actual official high and low records may vary slightly from our data, if they occured in-between our weather recording intervals... More about our weather records

Advertising

Jaipur weather history for previous 24 hours

 ConditionsComfort  
Time TempWeatherWind HumidityBarometerVisibility
5:00 AM
Aug 23
82 °FPassing clouds.5 mph66%29.74 "Hg2 mi
4:00 AM84 °FPassing clouds.5 mph58%29.74 "Hg2 mi
3:00 AM84 °FPassing clouds.5 mph62%29.74 "Hg2 mi
2:00 AM86 °FPassing clouds.5 mph59%29.74 "Hg2 mi
1:00 AM86 °FPassing clouds.5 mph55%29.74 "Hg2 mi
12:00 AM88 °FPassing clouds.5 mph52%29.74 "Hg2 mi
11:00 PM
Aug 22
88 °FPassing clouds.5 mph49%29.74 "Hg2 mi
10:00 PM90 °FPassing clouds.5 mph46%29.74 "Hg2 mi
9:00 PM90 °FPassing clouds.5 mph46%29.74 "Hg2 mi
7:00 PM91 °FScattered clouds.5 mph44%29.68 "Hg2 mi
6:00 PM93 °FScattered clouds.6 mph44%29.65 "Hg2 mi
5:00 PM97 °FScattered clouds.7 mph34%29.65 "Hg2 mi
4:00 PM97 °FScattered clouds.9 mph37%29.68 "Hg2 mi
3:00 PM97 °FScattered clouds.9 mph37%29.71 "Hg2 mi
2:00 PM95 °FHaze.9 mph39%29.71 "Hg2 mi
1:00 PM95 °FHaze.7 mph41%29.74 "Hg2 mi
11:00 AM90 °FHaze.8 mph55%29.77 "Hg2 mi
10:00 AM90 °FHaze.10 mph55%29.77 "Hg2 mi
9:00 AM86 °FHaze.9 mph62%29.77 "Hg2 mi
8:00 AM84 °FScattered clouds.5 mph66%29.74 "Hg2 mi
7:00 AM81 °FScattered clouds.7 mph74%29.71 "Hg2 mi
6:00 AM81 °FPassing clouds.2 mph70%29.71 "Hg2 mi
Weather by CustomWeather, © 2014

See weather overviewHow to use our weather pages